Powrót do katalogu

STARLINK-37166

AktywnyŁącznośćVLEO
NORAD 69195·PAYLOAD·🇺🇸 United States

Wystrzelony May 25, 2026 z Cape Canaveral Space Force Station

Loading…

Następne Przeloty (najbliższe 24 godziny)

TLE

ŚwieżeSource: CelesTrak SupGP

Epoka: Sep 14, 2026, 21:33 UTC

1 69195C 26114P   26257.89840278 -.00180430  00000+0 -53282-2 0  2578
2 69195  53.1570 139.9228 0001255  87.5492 356.6062 15.34496817    12

Śledź STARLINK-37166 w czasie rzeczywistym z AllMySat

Download on the App Store